TimeAKDT,TemperatureF,Dew PointF,Humidity,Sea Level PressureIn,VisibilityMPH,Wind Direction,Wind SpeedMPH,Gust SpeedMPH,PrecipitationIn,Events,Conditions,WindDirDegrees,DateUTC
12:53 AM,41.0,25.0,53,30.22,10.0,Calm,Calm,-,N/A,,Mostly Cloudy,0,2013-05-10 08:53:00
1:53 AM,41.0,27.0,57,30.22,10.0,Calm,Calm,-,N/A,,Mostly Cloudy,0,2013-05-10 09:53:00
2:53 AM,39.9,26.1,58,30.21,10.0,SSE,4.6,-,N/A,,Mostly Cloudy,160,2013-05-10 10:53:00
3:53 AM,39.9,27.0,60,30.21,10.0,NW,3.5,-,N/A,,Mostly Cloudy,320,2013-05-10 11:53:00
4:53 AM,37.0,27.0,67,30.21,10.0,North,3.5,-,N/A,,Mostly Cloudy,360,2013-05-10 12:53:00
5:53 AM,34.0,26.1,73,30.20,10.0,Calm,Calm,-,N/A,,Mostly Cloudy,0,2013-05-10 13:53:00
6:53 AM,37.9,26.1,62,30.20,10.0,Calm,Calm,-,N/A,,Scattered Clouds,0,2013-05-10 14:53:00
7:53 AM,41.0,25.0,53,30.19,10.0,Calm,Calm,-,N/A,,Scattered Clouds,0,2013-05-10 15:53:00
8:53 AM,43.0,26.1,51,30.18,10.0,Variable,3.5,-,N/A,,Partly Cloudy,0,2013-05-10 16:53:00
9:53 AM,46.0,23.0,40,30.17,10.0,ESE,3.5,-,N/A,,Partly Cloudy,120,2013-05-10 17:53:00
10:53 AM,48.0,23.0,37,30.16,10.0,SSW,3.5,-,N/A,,Scattered Clouds,200,2013-05-10 18:53:00
11:53 AM,50.0,21.9,33,30.15,10.0,Variable,4.6,-,N/A,,Scattered Clouds,0,2013-05-10 19:53:00
12:53 PM,51.1,21.0,31,30.13,10.0,South,6.9,-,N/A,,Scattered Clouds,190,2013-05-10 20:53:00
1:53 PM,52.0,21.0,30,30.12,10.0,South,8.1,-,N/A,,Scattered Clouds,180,2013-05-10 21:53:00
2:53 PM,54.0,21.0,28,30.09,10.0,SSE,6.9,-,N/A,,Scattered Clouds,150,2013-05-10 22:53:00
3:53 PM,55.0,18.0,23,30.07,10.0,Variable,3.5,-,N/A,,Scattered Clouds,0,2013-05-10 23:53:00
4:53 PM,55.9,21.0,26,30.05,10.0,Variable,3.5,-,N/A,,Mostly Cloudy,0,2013-05-11 00:53:00
5:53 PM,55.9,18.0,23,30.03,10.0,South,4.6,-,N/A,,Mostly Cloudy,190,2013-05-11 01:53:00
6:53 PM,57.0,17.1,21,30.01,10.0,SSW,4.6,-,N/A,,Mostly Cloudy,200,2013-05-11 02:53:00
7:53 PM,55.9,18.0,23,29.99,10.0,South,4.6,-,N/A,,Mostly Cloudy,190,2013-05-11 03:53:00
8:53 PM,54.0,21.0,28,29.98,10.0,South,3.5,-,N/A,,Mostly Cloudy,180,2013-05-11 04:53:00
9:53 PM,52.0,21.9,31,29.97,10.0,Calm,Calm,-,N/A,,Mostly Cloudy,0,2013-05-11 05:53:00
10:53 PM,48.0,24.1,39,29.96,10.0,Calm,Calm,-,N/A,,Mostly Cloudy,0,2013-05-11 06:53:00
11:53 PM,44.1,26.1,49,29.95,10.0,Calm,Calm,-,N/A,,Mostly Cloudy,0,2013-05-11 07:53:00